DELTA 1 DEB, 10716

Orbit data source: Space-Track

DELTA 1 DEB, 10716 is space debris in SSO originally from a launch on Thu, 29 Jul 1976 UTC launched from the Air Force Western Test Range (AFWTR). Debris objects in space refer to the collection of defunct objects orbiting the Earth. Examples of debris include non-operational satellites, rocket bodies, and fragments generated from explosions, collisions, or faulty payload assembly.

Loading next visibility...
Identifier
10716, 1976-077AM
Orbit
SSO
Country
Flag of USUS
Related business
Manufacturer
Unknown
Mission
Spacecraft
Bus & Motor
Unknown
Mass
Unknown
Launch date (UTC)
1976-07-29 (50 years ago)
Launch vehicle
Unknown
Launch site
Air Force Western Test Range (AFWTR)
Object type
Payload
Rocket body
Debris
Shape & HBR
Unknown shape, 0.1 m
Radar Cross Section
Medium (>0.1 m² and <1 m²)

Expand to show TLE details & history
Last TLE update: 15 hours ago

TLE from 15 hours ago
0 DELTA 1 DEB
1 10716U 76077AM  26256.06716877  .00003233  00000-0  13374-1 0  9995
2 10716 102.7265 110.7327 0133134 299.8916 216.4736 12.82846466288060
Epoch: 2026-09-13T01:36Z
TLE epoch observation values (Epoch: 2026-09-13T01:36:43.381Z)
Latitude
23.91318°
Longitude
-79.79618°
Altitude
1,415.643 km
Speed
7.116 km/s
True Right ascension
19h 45m 48s
True Declination
23° 47' 48"
Sunlit
Object was in daylight at epoch
Visualization orbit readout
Latitude
Unknown
Longitude
Unknown
Altitude
Unknown
Speed
Unknown
Apparent Right ascension
Unknown
Apparent Declination
Unknown
Sunlit
N/A
Visualization observer readout
Local Sidereal Time
09:28:18
Azimuth
Unknown
Elevation
Unknown
Doppler factor
Unknown
Orbital elements
Apogee altitude
1,430.2 km
Perigee altitude
1,225.021 km
Semi-major axis
7,705.747 km
Eccentricity
0.01331
Inclination
102.7265°
RAAN
110.7327°
Arg. of periapsis
299.8916°
True anomaly
215.57872°
Mean anomaly
216.4736°
Eccentric anomaly
216.02497°
Mean motion
3.20864 °/min
Orbital period
112.2 mins
BSTAR
0.013374
Loading maneuver chart data...
Computing Atmospheric mass density...
Loading historical data...
Loading historical data...
Loading historical data...
Loading historical data...
Loading historical data...
Loading historical data...
Loading historical data...

Documentation

Showing up to 5 results
|